Weather History for Oxnard, CA

Change the Weather History Date:

Saturday, March 9, 2013

  Actual Average Record
Temperature  
Mean Temperature 53 °F -  
Max Temperature 61 °F 64 °F 84 °F (2012)
Min Temperature 45 °F 47 °F 39 °F (1952)
Degree Days  
Heating Degree Days 12    
Growing Degree Days 3 (Base 50)    
Moisture  
Dew Point 43 °F    
Average Humidity 67    
Maximum Humidity 82    
Minimum Humidity 53    
Precipitation  
Precipitation 0.00 in - - ()
Sea Level Pressure  
Sea Level Pressure 30.12 in    
Wind  
Wind Speed 13 mph (NW)    
Max Wind Speed 22 mph    
Max Gust Speed 29 mph    
Visibility 10 miles    
Events      
Averages and records for this station are not official NWS values.
T = Trace of Precipitation, MM = Missing Value Source: NWS Daily Summary

Daily Weather History Graph

Daily Weather History Graph

Search for Another Location

Airport:

Trip Planner

Search our weather history database for the weather conditions in past years. The results will help you decide how hot, cold, wet, or windy it might be!

Date:

Astronomy

Mar. 09, 2013 Rise Set
Actual Time 6:14 AM PST 6:00 PM PST
Civil Twilight 5:49 AM PST 6:25 PM PST
Nautical Twilight 5:20 AM PST 6:54 PM PST
Astronomical Twilight 4:51 AM PST 7:23 PM PST
Moon 4:37 AM PST (3/9) 4:10 PM PST (3/9)
Length of Visible Light 12h 35m
Length of Day
11h 45m
Waning Crescent, 5% of the Moon is Illuminated
Mar 9
Waning Crescent
Mar 11
New
Mar 19
First Quarter
Mar 27
Full
Apr 2
Last Quarter

Hourly Weather History & Observations

Time (PST) Temp. Dew Point Humidity Pressure Visibility Wind Dir Wind Speed Gust Speed Precip Events Conditions
12:51 AM 51.1 °F 42.1 °F 71% 30.03 in 10.0 mi WNW 21.9 mph 28.8 mph N/A   Clear
1:51 AM 51.1 °F 42.1 °F 71% 30.05 in 10.0 mi WNW 17.3 mph 24.2 mph N/A   Scattered Clouds
2:51 AM 50.0 °F 39.9 °F 68% 30.05 in 10.0 mi WNW 16.1 mph 26.5 mph N/A   Clear
3:51 AM 50.0 °F 39.9 °F 68% 30.05 in 10.0 mi NW 15.0 mph 25.3 mph N/A   Clear
4:51 AM 48.0 °F 39.0 °F 71% 30.06 in 10.0 mi WNW 9.2 mph 17.3 mph N/A   Clear
5:51 AM 46.9 °F 39.0 °F 74% 30.08 in 10.0 mi NE 4.6 mph - N/A   Clear
6:51 AM 45.0 °F 39.9 °F 82% 30.11 in 10.0 mi Calm Calm - N/A   Clear
7:51 AM 48.9 °F 41.0 °F 74% 30.13 in 10.0 mi ENE 5.8 mph - N/A   Clear
8:51 AM 52.0 °F 43.0 °F 71% 30.14 in 10.0 mi Calm Calm - N/A   Clear
9:51 AM 55.0 °F 39.0 °F 55% 30.14 in 10.0 mi WNW 5.8 mph - N/A   Clear
10:51 AM 59.0 °F 42.1 °F 53% 30.14 in 10.0 mi West 18.4 mph - N/A   Clear
11:51 AM 59.0 °F 43.0 °F 55% 30.15 in 10.0 mi West 20.7 mph - N/A   Clear
12:51 PM 59.0 °F 44.1 °F 58% 30.14 in 10.0 mi WNW 17.3 mph 24.2 mph N/A   Clear
1:51 PM 61.0 °F 45.0 °F 56% 30.12 in 10.0 mi WNW 20.7 mph 26.5 mph N/A   Clear
2:51 PM 61.0 °F 46.9 °F 60% 30.12 in 10.0 mi West 19.6 mph - N/A   Clear
3:51 PM 60.1 °F 48.0 °F 64% 30.10 in 10.0 mi West 16.1 mph - N/A   Clear
4:51 PM 57.9 °F 48.9 °F 72% 30.11 in 8.0 mi West 12.7 mph 24.2 mph N/A   Clear
5:51 PM 55.0 °F 48.9 °F 80% 30.12 in 7.0 mi West 18.4 mph - N/A   Clear
6:51 PM 55.9 °F 44.1 °F 64% 30.14 in 10.0 mi Calm Calm - N/A   Clear
7:51 PM 52.0 °F 46.0 °F 80% 30.16 in 10.0 mi East 6.9 mph - N/A   Clear
8:51 PM 55.0 °F 46.0 °F 72% 30.17 in 10.0 mi ENE 3.5 mph - N/A   Clear
9:51 PM 53.1 °F 39.9 °F 61% 30.19 in 10.0 mi NE 6.9 mph - N/A   Clear
10:51 PM 51.1 °F 39.0 °F 63% 30.20 in 10.0 mi NE 4.6 mph - N/A   Clear
11:51 PM 50.0 °F 37.0 °F 61% 30.21 in 10.0 mi ENE 4.6 mph - N/A   Clear